Weather History for Billings, MT

Change the Weather History Date:

Friday, May 24, 2013

  Actual Average Record
Temperature  
Mean Temperature 60 °F 58 °F  
Max Temperature 71 °F 70 °F 90 °F (1941)
Min Temperature 49 °F 46 °F 34 °F (1975)
Degree Days  
Heating Degree Days 5 8  
Month to date heating degree days 194 262  
Since 1 July heating degree days 6286 6639  
Cooling Degree Days 0 1  
Month to date cooling degree days 27 6  
Year to date cooling degree days 27 7  
Growing Degree Days 9 (Base 50)    
Moisture  
Dew Point 37 °F    
Average Humidity 55    
Maximum Humidity 89    
Minimum Humidity 20    
Precipitation  
Precipitation 0.03 in 0.07 in 3.12 in (2011)
Month to date precipitation 2.03 1.65  
Year to date precipitation 4.19 5.33  
Snow  
Snow 0.00 in 0.00 in 0.40 in (1975)
Month to date snowfall T 1.9  
Since 1 July snowfall 40.4 54.9  
Snow Depth 0.00 in    
Sea Level Pressure  
Sea Level Pressure 29.84 in    
Wind  
Wind Speed 10 mph (NW)    
Max Wind Speed 30 mph    
Max Gust Speed 40 mph    
Visibility 10 miles    
Events Rain    
T = Trace of Precipitation, MM = Missing Value Source: NWS Daily Summary

Daily Weather History Graph

Daily Weather History Graph

Search for Another Location

Airport:

Trip Planner

Search our weather history database for the weather conditions in past years. The results will help you decide how hot, cold, wet, or windy it might be!

Date:

Astronomy

May. 24, 2013 Rise Set
Actual Time 5:33 AM MDT 8:49 PM MDT
Civil Twilight 4:57 AM MDT 9:25 PM MDT
Nautical Twilight 4:09 AM MDT 10:13 PM MDT
Astronomical Twilight 3:11 AM MDT 11:12 PM MDT
Moon 8:33 PM MDT (5/24) 5:10 AM MDT (5/24)
Length of Visible Light 16h 28m
Length of Day
15h 16m
Full, 100% of the Moon is Illuminated
May 24
Full
May 24
Full
May 31
Last Quarter
Jun 8
New
Jun 16
First Quarter

Hourly Weather History & Observations

Time (MDT) Temp. Dew Point Humidity Pressure Visibility Wind Dir Wind Speed Gust Speed Precip Events Conditions
12:53 AM 54.0 °F 50.0 °F 86% 29.65 in 10.0 mi NNE 17.3 mph 28.8 mph 0.00 in Rain Light Rain
1:53 AM 54.0 °F 50.0 °F 86% 29.75 in 10.0 mi SW 16.1 mph 24.2 mph 0.00 in Rain Light Rain
2:12 AM 53.1 °F 50.0 °F 89% 29.77 in 10.0 mi West 11.5 mph - 0.00 in Rain Light Rain
2:29 AM 52.0 °F 48.9 °F 89% 29.73 in 10.0 mi NNE 15.0 mph - 0.01 in Rain Light Rain
2:53 AM 52.0 °F 48.9 °F 89% 29.70 in 10.0 mi WNW 9.2 mph - 0.01 in   Overcast
3:53 AM 52.0 °F 48.0 °F 86% 29.75 in 10.0 mi WNW 20.7 mph 29.9 mph 0.01 in   Overcast
4:53 AM 50.0 °F 41.0 °F 71% 29.78 in 10.0 mi WNW 31.1 mph 40.3 mph N/A   Overcast
5:53 AM 51.1 °F 41.0 °F 68% 29.81 in 10.0 mi NW 11.5 mph - 0.00 in   Mostly Cloudy
6:53 AM 48.9 °F 44.1 °F 83% 29.86 in 10.0 mi Calm Calm - 0.01 in   Scattered Clouds
7:53 AM 52.0 °F 41.0 °F 66% 29.87 in 10.0 mi WSW 8.1 mph - N/A   Partly Cloudy
8:53 AM 55.9 °F 39.9 °F 55% 29.90 in 10.0 mi WSW 8.1 mph - N/A   Partly Cloudy
9:19 AM 55.9 °F 37.0 °F 49% 29.94 in 10.0 mi WNW 16.1 mph - N/A   Partly Cloudy
9:53 AM 57.9 °F 37.0 °F 46% 29.91 in 10.0 mi WSW 15.0 mph - N/A   Partly Cloudy
10:53 AM 60.1 °F 35.1 °F 39% 29.91 in 10.0 mi West 13.8 mph - N/A   Partly Cloudy
11:53 AM 62.1 °F 30.9 °F 31% 29.91 in 10.0 mi SW 12.7 mph - N/A   Partly Cloudy
12:53 PM 64.9 °F 30.0 °F 27% 29.89 in 10.0 mi West 17.3 mph 20.7 mph N/A   Partly Cloudy
1:53 PM 64.9 °F 28.0 °F 25% 29.88 in 10.0 mi SW 8.1 mph 20.7 mph N/A   Partly Cloudy
2:53 PM 66.0 °F 28.0 °F 24% 29.88 in 10.0 mi Variable 3.5 mph 19.6 mph N/A   Partly Cloudy
3:53 PM 68.0 °F 27.0 °F 21% 29.86 in 10.0 mi South 8.1 mph - N/A   Partly Cloudy
4:53 PM 70.0 °F 26.1 °F 19% 29.86 in 10.0 mi Calm Calm - N/A   Partly Cloudy
5:53 PM 70.0 °F 30.0 °F 23% 29.85 in 10.0 mi ENE 4.6 mph - N/A   Partly Cloudy
6:53 PM 68.0 °F 30.9 °F 25% 29.85 in 10.0 mi ENE 10.4 mph - N/A   Partly Cloudy
7:53 PM 64.9 °F 35.1 °F 33% 29.86 in 10.0 mi NE 11.5 mph - N/A   Partly Cloudy
8:53 PM 61.0 °F 36.0 °F 39% 29.86 in 10.0 mi NNE 6.9 mph - N/A   Partly Cloudy
9:53 PM 59.0 °F 35.1 °F 41% 29.89 in 10.0 mi NNE 6.9 mph - N/A   Partly Cloudy
10:53 PM 59.0 °F 35.1 °F 41% 29.90 in 10.0 mi NNE 5.8 mph - N/A   Clear
11:53 PM 55.9 °F 35.1 °F 45% 29.89 in 10.0 mi North 6.9 mph - N/A   Clear